Weather History for KHEF - January, 2012

Change the Weather History Date:

Saturday, January 7, 2012

  Actual Average Record
Temperature  
Mean Temperature 44 °F -  
Max Temperature 64 °F 43 °F 71 °F (2008)
Min Temperature 24 °F 24 °F 5 °F (2014)
Degree Days  
Heating Degree Days 21    
Moisture  
Dew Point 27 °F    
Average Humidity 66    
Maximum Humidity 86    
Minimum Humidity 42    
Precipitation  
Precipitation 0.00 in - - ()
Sea Level Pressure  
Sea Level Pressure 29.89 in    
Wind  
Wind Speed 2 mph (WNW)    
Max Wind Speed 12 mph    
Max Gust Speed -    
Visibility 10 miles    
Events      
Averages and records for this station are not official NWS values.
T = Trace of Precipitation, MM = Missing Value Source: NWS Daily Summary

Daily Weather History Graph

Daily Weather History Graph

Search for Another Location

Airport or City:

Trip Planner

Search our weather history database for the weather conditions in past years. The results will help you decide how hot, cold, wet, or windy it might be!

Date:

Astronomy

Jan. 07, 2012 Rise Set
Actual Time 7:28 AM EST 5:04 PM EST
Civil Twilight 6:58 AM EST 5:33 PM EST
Nautical Twilight 6:25 AM EST 6:06 PM EST
Astronomical Twilight 5:53 AM EST 6:38 PM EST
Moon 3:46 PM EST 5:57 AM EST
Length of Visible Light 10h 34m
Length of Day
9h 35m
Waxing Gibbous, 97% of the Moon is Illuminated
Jan 7
Waxing Gibbous
Jan 9
Full
Jan 16
Last Quarter
Jan 23
New
Jan 30
First Quarter

Hourly Weather History & Observations

Time (EST) Temp. Windchill Dew Point Humidity Pressure Visibility Wind Dir Wind Speed Gust Speed Precip Events Conditions
12:15 AM 30.2 °F - 24.8 °F 80% 29.84 in 10.0 mi Calm Calm - N/A   Clear
12:35 AM 30.2 °F - 24.8 °F 80% 29.84 in 10.0 mi Calm Calm - N/A   Clear
12:55 AM 30.2 °F - 23.0 °F 75% 29.84 in 10.0 mi Calm Calm - N/A   Clear
1:35 AM 28.4 °F - 23.0 °F 80% 29.84 in 10.0 mi Calm Calm - N/A   Clear
1:55 AM 30.2 °F - 24.8 °F 80% 29.84 in 10.0 mi Calm Calm - N/A   Clear
2:15 AM 28.4 °F - 24.8 °F 86% 29.84 in 10.0 mi Calm Calm - N/A   Clear
2:35 AM 28.4 °F - 24.8 °F 86% 29.85 in 10.0 mi Calm Calm - N/A   Clear
2:55 AM 28.4 °F - 23.0 °F 80% 29.85 in 10.0 mi Calm Calm - N/A   Clear
3:15 AM 28.4 °F - 24.8 °F 86% 29.85 in 10.0 mi Calm Calm - N/A   Clear
3:35 AM 26.6 °F - 21.2 °F 80% 29.85 in 10.0 mi Calm Calm - N/A   Clear
3:55 AM 28.4 °F - 23.0 °F 80% 29.85 in 10.0 mi Calm Calm - N/A   Clear
4:35 AM 26.6 °F - 19.4 °F 74% 29.84 in 10.0 mi Calm Calm - N/A   Clear
4:55 AM 26.6 °F - 21.2 °F 80% 29.84 in 10.0 mi Calm Calm - N/A   Clear
5:15 AM 24.8 °F - 21.2 °F 86% 29.84 in 10.0 mi Calm Calm - N/A   Clear
5:35 AM 26.6 °F - 21.2 °F 80% 29.84 in 10.0 mi Calm Calm - N/A   Clear
5:55 AM 26.6 °F - 21.2 °F 80% 29.84 in 10.0 mi Calm Calm - N/A   Clear
6:15 AM 24.8 °F - 19.4 °F 80% 29.84 in 10.0 mi Calm Calm - N/A   Clear
6:55 AM 26.6 °F - 21.2 °F 80% 29.89 in 10.0 mi Calm Calm - N/A   Clear
7:50 AM 26.6 °F - 19.4 °F 74% 29.85 in 10.0 mi Calm Calm - N/A   Clear
8:50 AM 32.0 °F - 26.6 °F 80% 29.87 in 10.0 mi Calm Calm - N/A   Scattered Clouds
11:45 AM 60.8 °F - 39.2 °F 45% 29.84 in 10.0 mi WSW 6.9 mph - N/A   Overcast
12:50 PM 64.4 °F - 41.0 °F 42% 29.82 in 10.0 mi SSW 9.2 mph - N/A   Clear
2:45 PM 62.6 °F - 41.0 °F 45% 29.83 in 10.0 mi SW 5.8 mph - N/A   Overcast
3:45 PM 62.6 °F - 41.0 °F 45% 29.85 in 10.0 mi WSW 3.5 mph - N/A   Mostly Cloudy
4:45 PM 60.8 °F - 41.0 °F 48% 29.88 in 10.0 mi West 3.5 mph - N/A   Partly Cloudy
5:45 PM 50.0 °F - 33.8 °F 54% 29.91 in 10.0 mi West 4.6 mph - N/A   Clear
6:45 PM 46.4 °F 42.9 °F 37.4 °F 71% 29.94 in 10.0 mi NW 6.9 mph - N/A   Clear
7:45 PM 48.2 °F - 32.0 °F 54% 29.97 in 10.0 mi North 3.5 mph - N/A   Clear
8:47 PM 48.2 °F - 30.2 °F 50% 30.00 in 10.0 mi NNW 8.1 mph - N/A   Clear
9:45 PM 46.4 °F 41.5 °F 26.6 °F 46% 30.02 in 10.0 mi NW 10.4 mph - N/A   Clear
10:35 PM 46.4 °F 42.9 °F 24.8 °F 43% 30.05 in 10.0 mi NNW 6.9 mph - N/A   Clear
10:55 PM 44.6 °F 38.8 °F 26.6 °F 49% 30.06 in 10.0 mi NW 11.5 mph - N/A   Clear
11:15 PM 46.4 °F 42.9 °F 24.8 °F 43% 30.06 in 10.0 mi NNW 6.9 mph - N/A   Clear
11:35 PM 46.4 °F 43.5 °F 24.8 °F 43% 30.07 in 10.0 mi North 5.8 mph - N/A   Clear
11:55 PM 42.8 °F 39.3 °F 21.2 °F 42% 30.07 in 10.0 mi NNW 5.8 mph - N/A   Clear